Location: *
(51.5000°N, 0.1100°W)
Time: 19:54:23
(UTC+00:00)

Cosmos 2219 Rocket - Pass Details

Date: 25 May 2024
Orbit: 826 x 846 km, 71.0° (Epoch: 16 June)

Event Time Altitude Azimuth Distance (km) Brightness Sun altitude
Rises 02:57:58 0° 326° (NNW) 3,401 5.5 -7.4°
Reaches altitude 10° 03:00:28 10° 322° (NW) 2,466 4.8 -7.2°
Maximum altitude 03:05:54 49° 249° (WSW) 1,081 2.4 -6.6°
Drops below altitude 10° 03:11:18 10° 176° (S) 2,460 4.2 -6.0°
Sets 03:13:48 0° 171° (S) 3,393 5.0 -5.7°
